This is the latest recevied weather packets stored in our database for station/object KD5UMO-1. If no packets are shown the sender has not sent any weather packets the latest 1 day(s).
| Time | Temp. | Humidity | Pressure | Rain* | Wind** | Luminosity | Snow |
|---|---|---|---|---|---|---|---|
| 1778049383 | 15° C | 77% | 1009.9 hPa | 0 mm | - | 0 W/m² | - |
| 1778048475 | 15° C | 77% | 1010.2 hPa | 0 mm | - | 0 W/m² | - |
| 1778047567 | 15.56° C | 77% | 1010 hPa | 0 mm | - | 0 W/m² | - |
| 1778046961 | 15.56° C | 77% | 1010.1 hPa | 0 mm | - | 0 W/m² | - |
| 1778046050 | 15.56° C | 78% | 1010 hPa | 0 mm | - | 0 W/m² | - |
| 1778045447 | 15.56° C | 78% | 1009.9 hPa | 0 mm | - | 0 W/m² | - |
| 1778044842 | 15.56° C | 78% | 1009.9 hPa | 0 mm | - | 0 W/m² | - |
| 1778043933 | 16.11° C | 79% | 1010 hPa | 0 mm | - | 0 W/m² | - |
| 1778043631 | 16.11° C | 79% | 1009.8 hPa | 0 mm | - | 0 W/m² | - |
| 1778043327 | 16.11° C | 79% | 1009.8 hPa | 0 mm | - | 0 W/m² | - |
| 1778043024 | 16.11° C | 79% | 1009.9 hPa | 0 mm | - | 0 W/m² | - |
| 1778042722 | 16.67° C | 78% | 1009.8 hPa | 0 mm | - | 0 W/m² | - |
| 1778042418 | 16.67° C | 78% | 1009.8 hPa | 0 mm | - | 0 W/m² | - |
| 1778041814 | 16.67° C | 78% | 1009.8 hPa | 0 mm | - | 0 W/m² | - |
| 1778040909 | 17.22° C | 77% | 1009.7 hPa | 0 mm | - | 0 W/m² | - |
| 1778040605 | 17.22° C | 77% | 1009.5 hPa | 0 mm | - | 0 W/m² | - |
| 1778040303 | 17.22° C | 78% | 1009.3 hPa | 0 mm | - | 0 W/m² | - |
| 1778039998 | 17.22° C | 78% | 1009.3 hPa | 0 mm | - | 0 W/m² | - |
| 1778039392 | 17.78° C | 78% | 1009.3 hPa | 0 mm | - | 0 W/m² | - |
| 1778039090 | 17.78° C | 78% | 1009.1 hPa | 0 mm | - | 0 W/m² | - |
| 1778037878 | 18.89° C | 77% | 1009.2 hPa | 0 mm | - | 0 W/m² | - |
| 1778037574 | 18.89° C | 77% | 1009 hPa | 0 mm | - | 0 W/m² | - |
| 1778037272 | 19.44° C | 76% | 1008.8 hPa | 0 mm | - | 0 W/m² | - |
| 1778036969 | 19.44° C | 77% | 1008.6 hPa | 0 mm | - | 0 W/m² | - |
| 1778036667 | 20° C | 77% | 1008.3 hPa | 0 mm | - | 0 W/m² | - |
* Rain latest hour (hover to see other rain measurements)
** Current wind speed in m/s (hover to see current wind gust speed)